Jackson, TN

7:29 AM CDT on July 28, 2017 (GMT -0500)
McKellar-Sipes Regional

Weather History for KMKL - April, 2013

Change the Weather History Date:

Saturday, April 27, 2013

  Actual Average Record
Temperature  
Mean Temperature 61 °F 63 °F  
Max Temperature 69 °F 75 °F 93 °F (1987)
Min Temperature 52 °F 52 °F 38 °F (2000)
Degree Days  
Heating Degree Days 4 4  
Month to date heating degree days 232 187  
Since 1 July heating degree days 3569 3515  
Cooling Degree Days 0 2  
Month to date cooling degree days 52 40  
Year to date cooling degree days 56 51  
Growing Degree Days 10 (Base 50)    
Moisture  
Dew Point 56 °F    
Average Humidity 92    
Maximum Humidity 100    
Minimum Humidity 84    
Precipitation  
Precipitation 2.77 in 0.17 in 3.22 in (2011)
Month to date precipitation 10.60 4.35  
Year to date precipitation 26.39 17.34  
Snow  
Snow 0.00 in - - ()
Month to date snowfall 0.0  
Snow Depth 0.00 in    
Sea Level Pressure  
Sea Level Pressure 30.06 in    
Wind  
Wind Speed 6 mph (ESE)    
Max Wind Speed 25 mph    
Max Gust Speed 51 mph    
Visibility 8 miles    
Events Rain , Thunderstorm    
T = Trace of Precipitation, MM = Missing Value Source: NWS Daily Summary

Daily Weather History Graph

Daily Weather History Graph

Search for Another Location

Airport or City:

Trip Planner

Search our weather history database for the weather conditions in past years. The results will help you decide how hot, cold, wet, or windy it might be!

Date:

Astronomy

Apr. 27, 2013 Rise Set
Actual Time 6:07 AM CDT 7:39 PM CDT
Civil Twilight 5:40 AM CDT 8:06 PM CDT
Nautical Twilight 5:08 AM CDT 8:38 PM CDT
Astronomical Twilight 4:34 AM CDT 9:12 PM CDT
Moon 10:04 PM CDT (4/27) 7:29 AM CDT (4/27)
Length of Visible Light 14h 25m
Length of Day
13h 31m
Waning Gibbous, 95% of the Moon is Illuminated
Apr 27
Waning Gibbous
May 2
Last Quarter
May 9
New
May 17
First Quarter
May 24
Full

Hourly Weather History & Observations

Time (CDT) Temp. Dew Point Humidity Pressure Visibility Wind Dir Wind Speed Gust Speed Precip Events Conditions
12:33 AM 51.8 °F 50.0 °F 94% 30.28 in 10.0 mi NE 4.6 mph - N/A   Overcast
12:53 AM 52.0 °F 50.0 °F 93% 30.26 in 10.0 mi East 8.1 mph - N/A   Overcast
1:53 AM 52.0 °F 50.0 °F 93% 30.22 in 10.0 mi East 9.2 mph - N/A   Overcast
2:53 AM 52.0 °F 50.0 °F 93% 30.18 in 10.0 mi East 6.9 mph - N/A   Overcast
3:53 AM 53.1 °F 50.0 °F 89% 30.14 in 10.0 mi Variable 5.8 mph - N/A   Overcast
4:53 AM 54.0 °F 50.0 °F 86% 30.10 in 10.0 mi SE 11.5 mph 17.3 mph N/A Thunderstorm Overcast
5:09 AM 53.6 °F 50.0 °F 88% 30.10 in 10.0 mi Calm Calm - N/A   Overcast
5:53 AM 53.1 °F 51.1 °F 93% 30.14 in 10.0 mi NNE 10.4 mph - 0.01 in Rain Light Rain
6:35 AM 53.6 °F 51.8 °F 94% 30.19 in 5.0 mi NNW 10.4 mph - 0.15 in Rain , Thunderstorm Light Rain
6:48 AM 53.6 °F 51.8 °F 94% 30.14 in 2.5 mi East 12.7 mph 17.3 mph 0.33 in Rain , Thunderstorm Heavy Thunderstorms and Rain
6:53 AM 52.0 °F 51.1 °F 97% 30.13 in 1.8 mi East 12.7 mph 19.6 mph 0.45 in Rain , Thunderstorm Heavy Thunderstorms and Rain
6:59 AM 51.8 °F 51.8 °F 100% 30.13 in 2.5 mi East 11.5 mph 19.6 mph 0.03 in Rain , Thunderstorm Thunderstorms and Rain
7:06 AM 53.6 °F 51.8 °F 94% 30.13 in 5.0 mi East 6.9 mph 16.1 mph 0.04 in Rain , Thunderstorm Light Rain
7:19 AM 53.6 °F 51.8 °F 94% 30.16 in 2.0 mi Variable 3.5 mph - 0.29 in Rain , Thunderstorm Heavy Thunderstorms and Rain
7:22 AM 53.6 °F 51.8 °F 94% 30.17 in 1.5 mi Variable 4.6 mph - 0.42 in Rain , Thunderstorm Heavy Thunderstorms and Rain
7:53 AM 53.1 °F 52.0 °F 96% 30.14 in 2.0 mi SE 9.2 mph 17.3 mph 1.21 in Rain , Thunderstorm Heavy Thunderstorms and Rain
8:08 AM 53.6 °F 51.8 °F 94% 30.14 in 2.5 mi ESE 8.1 mph - 0.12 in Rain , Thunderstorm Heavy Thunderstorms and Rain
8:15 AM 53.6 °F 51.8 °F 94% 30.14 in 3.0 mi ESE 6.9 mph - 0.17 in Rain , Thunderstorm Heavy Thunderstorms and Rain
8:30 AM 53.6 °F 51.8 °F 94% 30.15 in 1.8 mi ESE 5.8 mph - 0.38 in Rain , Thunderstorm Heavy Thunderstorms and Rain
8:37 AM 53.6 °F 51.8 °F 94% 30.14 in 3.0 mi ESE 5.8 mph - 0.40 in Rain , Thunderstorm Thunderstorms and Rain
8:53 AM 54.0 °F 52.0 °F 93% 30.13 in 6.0 mi SSE 8.1 mph - 0.43 in Rain , Thunderstorm Light Rain
9:00 AM 53.6 °F 51.8 °F 94% 30.12 in 9.0 mi SSE 8.1 mph - 0.00 in Rain Light Rain
9:53 AM 55.0 °F 53.1 °F 93% 30.13 in 10.0 mi ESE 6.9 mph - 0.01 in   Overcast
10:51 AM 55.4 °F 53.6 °F 94% 30.13 in 10.0 mi ESE 4.6 mph - N/A   Overcast
10:53 AM 55.0 °F 53.1 °F 93% 30.13 in 10.0 mi ESE 5.8 mph - N/A   Overcast
11:14 AM 55.4 °F 53.6 °F 94% 30.14 in 6.0 mi East 6.9 mph - N/A   Overcast
11:21 AM 55.4 °F 53.6 °F 94% 30.14 in 8.0 mi Calm Calm - N/A   Overcast
11:31 AM 55.4 °F 53.6 °F 94% 30.13 in 10.0 mi ESE 6.9 mph - N/A   Overcast
11:40 AM 55.4 °F 53.6 °F 94% 30.13 in 10.0 mi ESE 5.8 mph - N/A   Overcast
11:53 AM 55.9 °F 54.0 °F 93% 30.13 in 10.0 mi SE 4.6 mph - N/A   Overcast
12:53 PM 61.0 °F 57.9 °F 90% 30.10 in 10.0 mi SSE 6.9 mph - N/A   Mostly Cloudy
1:53 PM 62.1 °F 57.0 °F 84% 30.07 in 10.0 mi SSE 6.9 mph - N/A   Mostly Cloudy
2:53 PM 61.0 °F 59.0 °F 93% 30.04 in 5.0 mi ESE 4.6 mph - 0.01 in Rain Light Rain
3:53 PM 63.0 °F 61.0 °F 93% 30.00 in 10.0 mi Variable 3.5 mph - 0.00 in   Overcast
4:53 PM 66.0 °F 63.0 °F 90% 29.96 in 10.0 mi Calm Calm - 0.00 in   Overcast
5:53 PM 69.1 °F 64.0 °F 84% 29.94 in 10.0 mi SSE 6.9 mph - 0.00 in   Mostly Cloudy
6:45 PM 68.0 °F 64.4 °F 88% 29.94 in 10.0 mi SSE 4.6 mph - N/A   Mostly Cloudy
6:53 PM 68.0 °F 64.0 °F 87% 29.93 in 10.0 mi SSE 3.5 mph - N/A   Overcast
7:50 PM 66.2 °F 64.4 °F 94% 29.90 in 10.0 mi Calm Calm - N/A Thunderstorm Scattered Clouds
7:53 PM 66.9 °F 64.0 °F 90% 29.90 in 10.0 mi Calm Calm - N/A Thunderstorm Mostly Cloudy
8:05 PM 66.2 °F 64.4 °F 94% 29.91 in 10.0 mi Calm Calm - N/A   Mostly Cloudy
8:53 PM 66.0 °F 64.0 °F 93% 29.90 in 10.0 mi SSE 6.9 mph - 0.01 in Rain Light Rain
9:43 PM 62.6 °F 62.6 °F 100% 29.91 in 8.0 mi WSW 3.5 mph - 0.00 in Rain , Thunderstorm Light Rain
9:53 PM 64.0 °F 63.0 °F 96% 29.91 in 7.0 mi SW 3.5 mph - 0.01 in Rain , Thunderstorm Light Thunderstorms and Rain
10:08 PM 66.2 °F 64.4 °F 94% 29.93 in 2.0 mi SSW 21.9 mph 34.5 mph 0.21 in Rain , Thunderstorm Heavy Thunderstorms and Rain
10:15 PM 66.2 °F 60.8 °F 83% 29.91 in 1.0 mi SE 9.2 mph 50.6 mph 0.48 in Rain , Thunderstorm Heavy Thunderstorms and Rain
10:30 PM 62.6 °F 60.8 °F 94% 29.92 in 3.0 mi Calm Calm - 0.63 in Rain , Thunderstorm Light Thunderstorms and Rain
10:38 PM 62.6 °F 60.8 °F 94% 29.92 in 10.0 mi WSW 4.6 mph - 0.63 in Thunderstorm Thunderstorm
10:53 PM 63.0 °F 60.1 °F 90% 29.93 in 10.0 mi WNW 6.9 mph - 0.63 in   Mostly Cloudy
11:12 PM 62.6 °F 60.8 °F 94% 29.93 in 10.0 mi WNW 6.9 mph - N/A   Overcast
11:24 PM 62.6 °F 60.8 °F 94% 29.93 in 10.0 mi NW 4.6 mph - N/A   Mostly Cloudy
11:53 PM 61.0 °F 60.1 °F 97% 29.94 in 10.0 mi Calm Calm - N/A   Mostly Cloudy